Location: ?????
(31.8092°N, 35.2590°E)
Time: 19:55:48
(UTC+00:00)

Cosmos 1315 Rocket - Pass Details

Date: 20 June 2021
Orbit: 528 x 568 km, 81.2° (Epoch: 31 July)

Event Time Altitude Azimuth Distance (km) Brightness Sun altitude
Rises 18:27:34 0° 343° (NNW) 2,767 7.5 -18.0°
Reaches altitude 10° 18:29:51 10° 335° (NNW) 1,863 6.6 -18.4°
Maximum altitude 18:33:42 39° 266° (W) 849 4.1 -18.9°
Enters shadow 18:36:25 17° 205° (SSW) 1,443 4.7 -19.3°
